Yellowstone, WY

10:37 PM MDT on May 26, 2018 (GMT -0600)
Yellowstone

Weather History for KP60 - December, 2013

Change the Weather History Date:

Sunday, December 8, 2013

  Actual Average Record
Temperature  
Mean Temperature -13 °F 14 °F  
Max Temperature -1 °F 24 °F 38 °F (2014)
Min Temperature -25 °F 4 °F -25 °F (2013)
Degree Days  
Heating Degree Days 78 51  
Month to date heating degree days 510 398  
Since 1 July heating degree days 3738 3718  
Cooling Degree Days 0 0  
Month to date cooling degree days 0 0  
Year to date cooling degree days 0 0  
Moisture  
Dew Point -15 °F    
Average Humidity 76    
Maximum Humidity 87    
Minimum Humidity 65    
Precipitation  
Precipitation 0.00 in 0.04 in 0.25 in (2004)
Month to date precipitation 0.75 0.40  
Year to date precipitation 19.64 19.20  
Sea Level Pressure  
Sea Level Pressure 30.18 in    
Wind  
Wind Speed 2 mph (WNW)    
Max Wind Speed 9 mph    
Max Gust Speed 15 mph    
T = Trace of Precipitation, MM = Missing Value Source: NWS Daily Summary

Daily Weather History Graph

Daily Weather History Graph

Search for Another Location

Airport or City:

Astronomy

Dec. 08, 2013 Rise Set
Actual Time 7:45 AM MST 4:41 PM MST
Civil Twilight 7:12 AM MST 5:14 PM MST
Nautical Twilight 6:35 AM MST 5:51 PM MST
Astronomical Twilight 6:00 AM MST 6:26 PM MST
Moon 11:56 AM MST (12/8) 11:47 PM MST (12/8)
Length of Visible Light 10h 02m
Length of Day
8h 55m
Waxing Crescent, 40% of the Moon is Illuminated
Dec 8
Waxing Crescent
Dec 9
First Quarter
Dec 17
Full
Dec 25
Last Quarter
Jan 1
New

Hourly Weather History & Observations

Time (MST) Temp. Windchill Dew Point Humidity Pressure Visibility Wind Dir Wind Speed Gust Speed Precip Events Conditions
12:56 AM -6.0 °F - -9.0 °F 87% 29.96 in - Calm Calm - N/A   Unknown
1:56 AM -2.9 °F -11.2 °F -8.0 °F 79% 29.94 in - Variable 3.5 mph - N/A   Unknown
2:56 AM -5.1 °F - -9.9 °F 80% 29.96 in - Calm Calm - N/A   Unknown
3:56 AM -11.0 °F - -15.0 °F 83% 30.01 in - Calm Calm - N/A   Unknown
4:56 AM -13.0 °F - -18.0 °F 78% 30.04 in - Calm Calm - N/A   Unknown
5:56 AM -13.0 °F - -18.9 °F 75% 30.07 in - Calm Calm - N/A   Unknown
6:56 AM -9.0 °F - -13.0 °F 83% 30.08 in - Calm Calm - N/A   Unknown
7:56 AM -7.1 °F - -11.9 °F 79% 30.08 in - Calm Calm - N/A   Unknown
8:56 AM -6.0 °F - -11.0 °F 79% 30.11 in - Calm Calm - N/A   Unknown
9:56 AM -5.1 °F -13.6 °F -9.9 °F 80% 30.16 in - Variable 3.5 mph - N/A   Unknown
10:56 AM -2.9 °F - -9.9 °F 72% 30.16 in - Calm Calm - N/A   Unknown
11:56 AM -2.0 °F -15.4 °F -11.0 °F 66% 30.15 in - Variable 6.9 mph - N/A   Unknown
12:56 PM -2.0 °F -12.2 °F -8.0 °F 76% 30.14 in - Variable 4.6 mph - N/A   Unknown
1:56 PM -0.9 °F -11.0 °F -8.0 °F 72% 30.12 in - Variable 4.6 mph - N/A   Unknown
2:56 PM -2.9 °F -13.3 °F -9.0 °F 75% 30.16 in - Variable 4.6 mph - N/A   Unknown
3:56 PM -4.0 °F -17.8 °F -11.0 °F 72% 30.22 in - WNW 6.9 mph - N/A   Unknown
4:56 PM -5.1 °F -15.8 °F -11.0 °F 76% 30.26 in - West 4.6 mph - N/A   Unknown
5:56 PM -9.0 °F - -13.0 °F 83% 30.30 in - Calm Calm - N/A   Unknown
6:56 PM -15.0 °F - -18.9 °F 82% 30.34 in - Calm Calm - N/A   Unknown
7:56 PM -18.0 °F - -23.1 °F 78% 30.37 in - Calm Calm - N/A   Unknown
8:56 PM -18.0 °F - -23.1 °F 78% 30.38 in - Calm Calm - N/A   Unknown
9:56 PM -20.9 °F - -26.0 °F 77% 30.40 in - Calm Calm - N/A   Unknown
10:56 PM -23.1 °F - -27.9 °F 78% 30.42 in - Calm Calm - N/A   Unknown
11:56 PM -25.1 °F -36.5 °F -29.9 °F 78% 30.42 in - NW 3.5 mph - N/A   Unknown